Weather reports worldwide

Advertisment
Deuselbach, Germany (10615): temperature & dewpoint: 18.03.2019 17:00:00 - 24.03.2019 17:00:00 (CET)Deuselbach, Germany (10615): temperature 5cm & temperature -5cm: 18.03.2019 17:00:00 - 24.03.2019 17:00:00 (CET)Deuselbach, Germany (10615): temperature -20cm & temperature -100cm: 18.03.2019 17:00:00 - 24.03.2019 17:00:00 (CET)Deuselbach, Germany (10615): wind speed & gusts: 18.03.2019 17:00:00 - 24.03.2019 17:00:00 (CET)Deuselbach, Germany (10615): wind direction: 18.03.2019 17:00:00 - 24.03.2019 17:00:00 (CET)Deuselbach, Germany (10615): reduced air pressure: 18.03.2019 17:00:00 - 24.03.2019 17:00:00 (CET)Deuselbach, Germany (10615): visibility: 18.03.2019 17:00:00 - 24.03.2019 17:00:00 (CET)Deuselbach, Germany (10615): sunshine duration: 18.03.2019 17:00:00 - 24.03.2019 17:00:00 (CET)Deuselbach, Germany (10615): precipitation: 18.03.2019 17:00:00 - 24.03.2019 17:00:00 (CET)
Date & Time tt [°C] td [°C] tt 5cm [°C] tt -5cm [°C] tt -20cm [°C] tt -100cm [°C] ff [km/h] ff [kn] fx [km/h] fx [kn] dd ppp [hPa] vv [km] sd [min] rr [mm]
24.03.2019 17:00:00 8,4 2,8 8,5 9,6 8,1 5,9 16 9 32 17 N 1025,0 22 0 0,0
24.03.2019 16:00:00 9,4 3,0 9,7 10,6 7,8 5,9 19 10 26 14 N 1024,6 18 1 0,0
24.03.2019 15:00:00 10,4 3,3 13,0 11,4 7,4 5,9 7 4 20 11 NE 1024,3 14 16 0,0
24.03.2019 14:00:00 10,6 3,8 13,2 10,7 6,9 5,9 11 6 26 14 N 1024,9 16 10 0,0
24.03.2019 13:00:00 9,7 4,8 11,2 10,8 6,3 5,9 14 8 26 14 N 1025,4 10 24 0,0
24.03.2019 12:00:00 9,0 4,3 12,8 9,5 5,7 5,9 10 5 16 8 NNE 1025,3 8 30 0,0
24.03.2019 11:00:00 7,1 4,2 8,8 7,5 5,3 5,9 10 5 13 7 NNW 1026,1 7 3 0,0
24.03.2019 10:00:00 5,6 4,6 7,0 5,3 5,1 5,9 5 3 15 8 NNE 1026,7 3,4 0 0,0
24.03.2019 09:00:00 4,3 3,9 5,4 4,1 5,1 5,9 11 6 17 9 NE 1027,3 1,4 0 0,0
24.03.2019 08:00:00 3,5 3,1 3,7 3,4 5,1 5,9 15 8 22 12 NE 1027,7 0,5 0 0,0
24.03.2019 07:00:00 3,3 2,8 3,1 2,7 5,3 5,9 14 8 22 12 NE 1027,5 0,2 0 0,0
24.03.2019 06:00:00 3,1 2,2 0,3 2,7 5,6 5,8 11 6 15 8 ENE 1027,2 2,8 0 0,0
24.03.2019 05:00:00 3,0 2,0 0,4 3,0 5,9 5,8 6 3 15 8 ENE 1027,3 3,9 0 0,0
24.03.2019 04:00:00 3,6 2,0 -0,4 3,3 6,1 5,8 9 5 11 6 ENE 1027,6 6 0 0,0
24.03.2019 03:00:00 4,1 2,2 0,8 3,6 6,5 5,8 6 3 12 6 NE 1027,9 7 0 0,0
24.03.2019 02:00:00 3,9 2,2 0,3 4,0 6,8 5,8 6 3 13 7 ENE 1028,5 5 0 0,0
24.03.2019 01:00:00 3,5 2,2 0,2 4,5 7,2 5,8 4 2 11 6 NE 1029,1 3,6 0 0,0
24.03.2019 00:00:00 3,6 1,8 0,8 5,0 7,6 5,8 10 5 14 8 ENE 1029,6 3,4 0 0,0
23.03.2019 23:00:00 4,0 1,8 0,9 5,7 8,0 5,8 9 5 13 7 NE 1029,9 3,8 0 0,0
23.03.2019 22:00:00 4,6 2,1 1,4 6,4 8,4 5,8 8 4 11 6 ENE 1030,3 3,7 0 0,0
23.03.2019 21:00:00 5,0 2,5 2,0 7,3 8,8 5,8 6 3 14 8 E 1030,2 4,1 0 0,0
23.03.2019 20:00:00 5,2 2,4 2,9 8,4 9,2 5,8 10 5 19 10 ENE 1030,6 4,6 0 0,0
23.03.2019 19:00:00 6,4 2,8 4,7 9,9 9,4 5,8 14 7 29 16 NE 1029,9 6 0 0,0
23.03.2019 18:00:00 7,7 3,4 7,5 11,6 9,5 5,8 20 11 29 16 NE 1029,2 6 34 0,0
23.03.2019 17:00:00 9,4 4,5 10,7 13,1 9,2 5,8 22 12 31 17 NE 1028,3 9 60 0,0
23.03.2019 16:00:00 12,7 3,9 14,9 14,1 8,8 5,8 16 9 25 14 NE 1027,4 12 60 0,0
23.03.2019 15:00:00 13,3 2,3 15,4 14,3 8,1 5,7 13 7 22 12 N 1027,5 16 60 0,0
23.03.2019 14:00:00 12,9 2,2 16,9 13,6 7,4 5,7 10 5 20 11 NNE 1027,7 16 60 0,0
23.03.2019 13:00:00 12,7 2,5 17,0 12,3 6,6 5,7 10 6 24 13 NNE 1028,1 18 60 0,0
23.03.2019 12:00:00 12,7 2,6 16,0 10,8 5,8 5,7 8 5 17 9 NNE 1028,3 15 59 0,0
23.03.2019 11:00:00 11,8 2,7 13,7 8,5 5,2 5,7 7 4 13 7 NW 1028,5 20 60 0,0
23.03.2019 10:00:00 9,9 1,0 11,0 6,0 4,9 5,7 3 2 8 4 NNW 1029,0 25 60 0,0
23.03.2019 09:00:00 7,9 0,3 8,2 4,1 4,8 5,7 3 2 8 4 NW 1029,1 27 60 0,0
23.03.2019 08:00:00 6,1 0,1 4,7 2,6 5,0 5,7 0 0 7 4 N 1029,1 18 51 0,0
23.03.2019 07:00:00 4,0 -0,5 -0,3 2,3 5,3 5,7 5 3 9 5 SE 1029,2 23 0 0,0
23.03.2019 06:00:00 4,4 -0,7 -0,3 2,6 5,5 5,7 5 3 9 5 SSE 1028,8 24 0 0,0
23.03.2019 05:00:00 4,6 -1,0 -0,3 3,0 5,8 5,6 4 2 11 6 NNE 1028,9 26 0 0,0
23.03.2019 04:00:00 5,8 -0,3 -0,3 3,4 6,2 5,6 2 1 8 4 S 1028,6 34 0 0,0
23.03.2019 03:00:00 6,0 -0,1 -0,3 3,9 6,5 5,6 4 2 7 4 SSE 1028,4 31 0 0,0
23.03.2019 02:00:00 7,2 0,1 0,5 4,4 6,8 5,6 6 3 8 4 S 1028,3 35 0 0,0
23.03.2019 01:00:00 6,7 0,4 2,0 4,9 7,2 5,6 7 4 10 6 SSE 1028,6 42 0 0,0
23.03.2019 00:00:00 7,4 0,9 1,2 5,4 7,6 5,6 7 4 10 5 SSE 1028,7 41 0 0,0
22.03.2019 23:00:00 7,9 0,7 1,9 6,1 8,0 5,6 6 3 8 4 S 1028,6 45 0 0,0
22.03.2019 22:00:00 8,1 -0,6 2,7 7,0 8,3 5,6 4 2 16 8 SSE 1028,7 58 0 0,0
22.03.2019 21:00:00 9,1 -1,1 4,8 7,9 8,7 5,6 7 4 18 10 NW 1028,5 56 0 0,0
22.03.2019 20:00:00 10,6 -0,3 7,1 9,0 8,9 5,6 10 5 16 9 SSE 1027,9 56 0 0,0
22.03.2019 19:00:00 12,5 -0,4 9,1 10,4 9,1 5,6 13 7 21 11 SSE 1027,3 75 35 0,0
22.03.2019 18:00:00 15,1 -1,9 13,4 11,8 9,0 5,6 14 8 20 11 SE 1026,7 71 60 0,0
22.03.2019 17:00:00 15,6 -0,1 14,8 12,7 8,7 5,6 10 5 23 12 SE 1026,6 53 60 0,0
22.03.2019 16:00:00 16,0 0,6 16,1 13,2 8,3 5,6 14 8 29 16 SSE 1027,0 45 60 0,0
22.03.2019 15:00:00 16,1 -1,1 17,2 13,2 7,7 5,6 16 9 29 16 SE 1027,2 66 60 0,0
22.03.2019 14:00:00 15,8 -2,2 16,9 12,7 6,9 5,6 19 11 31 17 ESE 1027,9 72 60 0,0
22.03.2019 13:00:00 15,2 -3,3 16,9 11,5 6,2 5,6 22 12 33 18 SE 1028,5 54 60 0,0
22.03.2019 12:00:00 14,5 -2,4 15,8 10,0 5,5 5,6 17 9 26 14 SE 1029,1 33 60 0,0
22.03.2019 11:00:00 13,2 -1,0 14,6 8,0 5,0 5,5 17 9 29 15 SE 1029,7 75 60 0,0
22.03.2019 10:00:00 11,9 -1,0 12,7 6,1 4,6 5,5 12 7 19 11 SE 1030,3 70 60 0,0
22.03.2019 09:00:00 10,5 0,7 10,3 4,2 4,5 5,5 4 2 9 5 ENE 1030,3 54 60 0,0
22.03.2019 08:00:00 7,7 -0,3 7,1 2,6 4,6 5,5 5 3 11 6 ESE 1030,9 51 51 0,0
22.03.2019 07:00:00 4,8 -1,0 1,8 2,3 4,8 5,5 6 3 11 6 SE 1031,5 46 0 0,0
22.03.2019 06:00:00 6,6 -0,6 2,0 2,5 5,0 5,5 5 3 9 5 SE 1031,0 48 0 0,0
22.03.2019 05:00:00 6,5 -0,8 1,8 2,7 5,3 5,5 6 3 11 6 ESE 1031,2 45 0 0,0
22.03.2019 04:00:00 5,8 -1,1 0,4 3,1 5,6 5,5 3 2 11 6 ENE 1031,6 47 0 0,0
22.03.2019 03:00:00 5,8 -1,0 1,3 3,4 5,9 5,5 4 2 11 6 SSE 1031,6 44 0 0,0
22.03.2019 02:00:00 6,8 -0,8 1,8 3,8 6,2 5,5 5 3 13 7 SSE 1031,9 49 0 0,0
22.03.2019 01:00:00 6,2 -1,4 1,4 4,3 6,5 5,5 5 3 18 10 ESE 1032,3 50 0 0,0
22.03.2019 00:00:00 7,6 -1,6 2,9 4,7 6,9 5,5 6 3 14 7 E 1032,5 51 0 0,0
21.03.2019 23:00:00 7,2 -2,3 3,4 5,2 7,3 5,5 10 6 15 8 ESE 1032,8 55 0 0,0
21.03.2019 22:00:00 6,0 -2,2 3,0 6,0 7,7 5,5 13 7 16 9 SE 1033,2 60 0 0,0
21.03.2019 21:00:00 7,0 -2,2 3,7 7,0 8,1 5,5 16 8 17 9 ESE 1032,9 62 0 0,0
21.03.2019 20:00:00 8,1 -2,3 5,2 8,2 8,4 5,5 12 6 16 9 SE 1032,8 71 0 0,0
21.03.2019 19:00:00 10,8 -2,8 6,9 9,9 8,5 5,5 11 6 16 8 ESE 1031,7 71 33 0,0
21.03.2019 18:00:00 12,2 -2,7 11,0 11,4 8,3 5,5 11 6 21 12 E 1031,3 65 60 0,0
21.03.2019 17:00:00 13,1 -1,8 14,0 12,2 8,0 5,5 13 7 27 15 E 1031,4 66 60 0,0
21.03.2019 16:00:00 13,1 -5,3 14,8 12,7 7,5 5,5 16 9 27 14 E 1031,5 69 60 0,0
21.03.2019 15:00:00 12,6 -4,2 15,5 12,5 6,8 5,4 17 9 27 15 E 1032,3 60 60 0,0
21.03.2019 14:00:00 12,0 -2,1 15,6 11,7 6,1 5,4 16 9 27 14 ENE 1033,0 75 60 0,0
21.03.2019 13:00:00 11,4 -3,3 14,6 10,1 5,4 5,4 14 8 34 18 SE 1033,5 42 60 0,0
21.03.2019 12:00:00 10,5 -3,1 13,5 8,8 4,7 5,4 19 10 31 17 E 1034,0 57 60 0,0
21.03.2019 11:00:00 9,8 -2,6 12,7 6,8 4,1 5,4 16 9 27 15 E 1034,4 56 60 0,0
21.03.2019 10:00:00 8,6 -3,4 10,8 4,6 3,8 5,4 16 8 22 12 E 1034,7 56 60 0,0
21.03.2019 09:00:00 6,6 -2,3 7,6 2,3 3,8 5,4 3 2 5 3 NNW 1035,2 38 60 0,0
21.03.2019 08:00:00 3,9 -4,1 3,6 1,5 4,0 5,4 4 2 9 5 SSW 1035,7 59 48 0,0
21.03.2019 07:00:00 2,3 -3,9 -1,6 1,6 4,2 5,4 7 4 9 5 SSE 1035,7 55 0 0,0
21.03.2019 06:00:00 2,8 -4,0 -2,0 1,7 4,4 5,4 3 2 10 6 W 1035,6 51 0 0,0
21.03.2019 05:00:00 3,2 -3,9 -1,1 1,8 4,7 5,4 7 4 9 5 SE 1035,4 58 0 0,0
21.03.2019 04:00:00 3,1 -3,6 -2,1 2,1 5,0 5,4 5 3 9 5 SE 1035,3 29 0 0,0
21.03.2019 03:00:00 2,2 -3,3 -1,8 2,6 5,4 5,4 5 3 7 4 S 1035,7 65 0 0,0
21.03.2019 02:00:00 3,0 -2,5 -1,1 3,0 5,7 5,4 6 3 10 5 SE 1035,8 53 0 0,0
21.03.2019 01:00:00 3,8 -2,7 -0,3 3,6 6,1 5,4 4 2 8 4 ESE 1035,8 55 0 0,0
21.03.2019 00:00:00 4,3 -2,2 -0,6 4,1 6,4 5,4 4 2 10 5 ESE 1035,9 42 0 0,0
20.03.2019 23:00:00 4,0 -2,1 0,1 4,8 6,8 5,4 5 3 10 5 E 1036,2 27 0 0,0
20.03.2019 22:00:00 5,1 -2,0 1,4 5,6 7,2 5,4 7 4 13 7 ESE 1035,7 55 0 0,0
20.03.2019 21:00:00 5,8 -2,0 2,0 6,5 7,6 5,4 10 5 13 7 SE 1035,2 63 0 0,0
20.03.2019 20:00:00 6,1 -1,3 3,7 7,8 7,9 5,4 8 5 11 6 SSE 1034,9 60 0 0,0
20.03.2019 19:00:00 7,8 -1,9 3,0 9,3 8,0 5,4 5 3 13 7 ENE 1034,2 74 32 0,0
20.03.2019 18:00:00 9,5 -0,9 9,0 11,0 7,9 5,4 10 6 18 10 NNE 1033,8 49 60 0,0
20.03.2019 17:00:00 10,3 -0,4 12,4 12,1 7,5 5,4 9 5 18 10 N 1033,4 67 60 0,0
20.03.2019 16:00:00 10,3 -0,8 13,4 12,4 7,0 5,4 14 7 21 11 NNE 1033,4 47 60 0,0
20.03.2019 15:00:00 10,6 -1,9 13,3 12,0 6,3 5,4 9 5 23 12 WNW 1033,4 73 60 0,0
20.03.2019 14:00:00 10,3 -2,1 13,2 11,3 5,4 5,4 8 4 20 11 W 1033,7 58 60 0,0
20.03.2019 13:00:00 9,3 -4,0 12,0 10,0 4,6 5,4 8 5 17 9 NNW 1034,3 58 60 0,0
20.03.2019 12:00:00 9,4 -3,9 12,0 8,1 3,8 5,4 6 4 13 7 NW 1034,6 69 60 0,0
20.03.2019 11:00:00 8,2 -3,5 11,4 5,3 3,3 5,4 4 2 11 6 NE 1035,0 75 60 0,0
20.03.2019 10:00:00 7,0 -3,9 8,2 2,0 3,2 5,4 4 2 5 3 W 1034,9 62 60 0,0
20.03.2019 09:00:00 4,8 -1,9 5,1 1,2 3,3 5,4 1 1 6 3 NNW 1034,9 45 60 0,0
20.03.2019 08:00:00 2,1 -3,0 1,4 1,2 3,5 5,3 4 2 10 5 SE 1035,2 64 46 0,0
20.03.2019 07:00:00 0,1 -3,5 -3,0 1,3 3,6 5,3 8 4 8 5 SSE 1035,0 46 0 0,0
20.03.2019 06:00:00 -0,1 -3,6 -3,2 1,4 3,8 5,3 6 3 9 5 SSE 1034,5 46 0 0,0
20.03.2019 05:00:00 0,3 -3,5 -3,7 1,5 4,0 5,3 4 2 6 3 S 1034,3 46 0 0,0
20.03.2019 04:00:00 0,6 -3,8 -3,9 1,6 4,2 5,3 3 2 5 3 SSW 1034,1 54 0 0,0
20.03.2019 03:00:00 1,3 -3,5 -3,7 1,8 4,5 5,3 5 3 9 5 SSE 1033,7 61 0 0,0
20.03.2019 02:00:00 1,2 -3,3 -2,4 2,0 4,8 5,3 5 3 13 7 ESE 1033,7 64 0 0,0
20.03.2019 01:00:00 1,3 -3,2 -1,6 2,3 5,2 5,3 10 5 12 7 SSE 1033,8 62 0 0,0
20.03.2019 00:00:00 1,0 -2,8 -2,8 2,8 5,6 5,3 3 1 8 5 ESE 1033,8 56 0 0,0
19.03.2019 23:00:00 1,0 -2,9 -2,0 3,4 6,0 5,3 8 4 10 6 SSE 1033,3 48 0 0,0
19.03.2019 22:00:00 2,5 -3,1 -1,5 4,2 6,5 5,3 4 2 9 5 ESE 1032,6 59 0 0,0
19.03.2019 21:00:00 1,8 -3,2 -0,5 5,2 6,9 5,3 7 4 15 8 SSE 1032,1 66 0 0,0
19.03.2019 20:00:00 2,5 -3,0 -0,2 6,5 7,2 5,3 7 4 11 6 SSE 1031,4 58 0 0,0
19.03.2019 19:00:00 5,1 -3,6 0,3 8,2 7,4 5,4 4 2 11 6 S 1030,2 62 30 0,0
19.03.2019 18:00:00 6,9 -2,9 7,0 9,8 7,3 5,4 6 3 21 12 N 1029,4 75 60 0,0
19.03.2019 17:00:00 7,9 -4,6 8,9 11,0 7,0 5,4 12 6 19 10 NW 1028,6 75 60 0,0
19.03.2019 16:00:00 7,7 -7,7 9,8 11,7 6,4 5,4 9 5 17 9 W 1028,6 75 60 0,0
19.03.2019 15:00:00 7,5 -5,5 10,4 11,2 5,7 5,4 5 3 19 10 WSW 1028,6 75 60 0,0
19.03.2019 14:00:00 6,8 -3,9 9,7 10,3 4,9 5,4 11 6 21 11 WNW 1028,8 57 60 0,0
19.03.2019 13:00:00 5,9 -4,9 9,4 8,8 4,1 5,4 10 5 16 9 NW 1029,0 75 60 0,0
19.03.2019 12:00:00 5,4 -3,9 9,4 6,8 3,5 5,4 5 3 16 9 SE 1029,0 55 60 0,0
19.03.2019 11:00:00 4,5 -3,8 6,7 4,3 3,1 5,4 5 3 14 8 NE 1029,0 43 60 0,0
19.03.2019 10:00:00 3,6 -2,6 5,5 1,6 3,1 5,4 7 4 13 7 N 1029,0 44 60 0,0
19.03.2019 09:00:00 3,5 -4,1 2,0 1,2 3,2 5,4 0 0 6 3 N 1028,6 37 60 0,0
19.03.2019 08:00:00 -0,4 -2,7 -0,6 1,2 3,3 5,4 5 3 8 4 SSE 1028,8 28 44 0,0
19.03.2019 07:00:00 -1,7 -2,5 -3,9 1,3 3,4 5,4 4 2 8 4 SE 1028,3 20 0 0,0
19.03.2019 06:00:00 -1,3 -2,3 -2,8 1,4 3,6 5,4 8 4 9 5 SSE 1028,0 33 0 0,0
19.03.2019 05:00:00 -1,7 -2,6 -4,1 1,5 3,8 5,4 5 3 9 5 SSE 1027,6 23 0 0,0
19.03.2019 04:00:00 -1,0 -2,3 -3,0 1,7 4,1 5,4 6 3 7 4 S 1026,7 31 0 0,0
19.03.2019 03:00:00 -0,4 -2,1 -2,4 1,9 4,3 5,4 4 2 8 4 E 1026,4 37 0 0,0
19.03.2019 02:00:00 0,4 -1,0 -2,5 2,6 4,5 5,4 5 3 6 3 SE 1026,1 55 0 0,0
19.03.2019 01:00:00 1,6 -0,9 0,2 3,2 4,7 5,4 4 2 6 3 SSE 1025,7 58 0 0,0
19.03.2019 00:00:00 1,9 -1,2 0,6 3,4 4,9 5,4 4 2 7 4 SSW 1025,4 53 0 0,0
18.03.2019 23:00:00 1,2 -1,1 0,2 3,6 5,2 5,4 6 3 9 5 S 1025,2 50 0 0,0
18.03.2019 22:00:00 2,1 -1,4 0,6 4,1 5,4 5,4 5 3 8 4 S 1024,5 49 0 0,0
18.03.2019 21:00:00 3,3 -2,5 2,2 4,6 5,6 5,4 8 4 16 8 W 1023,6 60 0 0,0
18.03.2019 20:00:00 3,4 -2,2 0,9 5,4 5,8 5,4 9 5 23 12 WNW 1023,1 74 0 0,0
18.03.2019 19:00:00 4,5 0,0 3,6 6,2 5,8 5,4 17 9 22 12 W 1021,8 73 0 0,0
18.03.2019 18:00:00 5,6 -1,3 4,0 7,5 5,6 5,4 12 7 17 9 W 1020,8 75 53 0,0
18.03.2019 17:00:00 5,8 0,1 5,6 7,7 5,4 5,4 11 6 19 10 WNW 1020,4 58 50 0,0

tt = temperature
td = dewpoint
tt 5cm = temperature 5cm
tt -5cm = temperature -5cm
tt -20cm = temperature -20cm
tt -100cm = temperature -100cm
ff = wind speed
fx = gusts
dd = wind direction
ppp = reduced air pressure
vv = visibility
sd = sunshine duration
rr = precipitation

Next stations